Location: D�derode
(51.8092°N, 10.1065°E)
Time: 20:27:55
(UTC+00:00)

USA 238 DEB - Pass Details

Date: 01 December 2020
Orbit: 996 x 1216 km, 63.4° (Epoch: 22 January)

Event Time Altitude Azimuth Distance (km) Brightness Sun altitude
Rises 18:52:48 0° 226° (SW) 3,736 7.1 -33.0°
Reaches altitude 10° 18:55:20 10° 227° (SW) 2,807 6.3 -33.4°
Enters shadow 19:00:38 61° 238° (WSW) 1,183 3.9 -34.2°
